This demonstration page uses our WeatherBlox Daily Observations layout. Learn more.

Left ArrowRight Arrow

40.92945, -100.16068

Hourly Observations for April 11, 2016

Temp ( °F °C ) Dew Point ( °F °C ) Humidity (%) Winds ( mph kmh ) Pressure ( in mb ) Visibility ( mi km ) Precip ( " mm )
12:15 am 00:15 Partly Cloudy 45 7 41 5.2 88 88 NW 9 15 30.00 1016 10 16 N/A
12:35 am 00:35 Clear 44 6.7 41 4.9 88 88 NW 10 17 30.00 1016 10 16 N/A
12:55 am 00:55 Clear 43 6.2 40 4.5 89 89 NW 8 13 30.06 1018 10 16 N/A
1:15 am 01:15 Partly Cloudy 42 5.5 39 3.8 89 89 NNW 8 13 30.06 1018 10 16 N/A
1:35 am 01:35 Clear 39 4.1 37 2.6 90 90 NNW 9 15 30.06 1018 10 16 N/A
1:55 am 01:55 Clear 40 4.6 37 3 89 89 N 10 17 30.06 1018 10 16 N/A
2:15 am 02:15 Partly Cloudy 43 6 37 2.6 79 79 NE 12 19 30.06 1018 10 16 N/A
2:35 am 02:35 Mostly Cloudy 43 6.1 36 2 75 75 NE 13 20 30.09 1019 10 16 N/A
2:55 am 02:55 Cloudy 42 5.7 35 1.5 75 75 NE 13 20 30.09 1019 10 16 N/A
3:15 am 03:15 Cloudy 41 5.2 33 0.6 72 72 NE 12 19 30.09 1019 10 16 N/A
3:35 am 03:35 Partly Cloudy 40 4.6 32 0.2 73 73 NE 13 20 30.09 1019 10 16 N/A
3:55 am 03:55 Mostly Cloudy 40 4.2 32 -0.2 73 73 NE 10 17 30.09 1019 10 16 N/A
4:15 am 04:15 Cloudy 39 4 31 -0.5 73 73 NE 10 17 30.09 1019 10 16 N/A
4:35 am 04:35 Cloudy 39 3.8 30 -0.9 72 72 ENE 3 6 30.15 1021 10 16 N/A
4:55 am 04:55 Cloudy 38 3.3 30 -0.9 74 74 E 6 9 30.15 1021 10 16 N/A
5:15 am 05:15 Cloudy 37 2.9 29 -1.6 73 73 ENE 7 11 30.15 1021 10 16 N/A
5:35 am 05:35 Partly Cloudy 35 1.4 28 -2.2 77 77 NE 6 9 30.21 1023 10 16 N/A
5:55 am 05:55 Partly Cloudy 33 0.5 27 -2.7 79 79 NE 7 11 30.21 1023 10 16 N/A
6:15 am 06:15 Clear 32 undefined 27 -3 80 80 NE 3 6 30.21 1023 10 16 N/A
6:35 am 06:35 Partly Cloudy 32 undefined 27 -3 80 80 NNE 7 11 30.21 1023 10 16 N/A
6:55 am 06:55 Mostly Cloudy 31 -0.5 27 -2.9 84 84 N 5 7 30.21 1023 10 16 N/A
7:15 am 07:15 Cloudy 32 0.1 28 -2 86 86 N 6 9 30.24 1024 10 16 N/A
7:35 am 07:35 Cloudy 35 1.4 29 -1.5 81 81 N 3 6 30.24 1024 10 16 N/A
7:55 am 07:55 Cloudy 35 1.9 30 -1.3 80 80 NE 5 7 30.21 1023 10 16 N/A
8:15 am 08:15 Cloudy 37 2.5 29 -1.6 75 75 NE 6 9 30.24 1024 10 16 N/A
8:35 am 08:35 Cloudy 38 3.1 28 -2.5 67 67 NE 8 13 30.24 1024 10 16 N/A
8:55 am 08:55 Cloudy 38 3.5 26 -3.4 61 61 NE 7 11 30.24 1024 10 16 N/A
9:15 am 09:15 Mostly Cloudy 39 4 24 -4.3 55 55 NE 9 15 30.24 1024 10 16 N/A
9:35 am 09:35 Mostly Cloudy 41 4.8 25 -4.1 53 53 NE 10 17 30.24 1024 10 16 N/A
9:55 am 09:55 Partly Cloudy 42 5.6 25 -3.8 51 51 ENE 10 17 30.21 1023 10 16 N/A
10:15 am 10:15 Sunny 44 6.4 26 -3.1 51 51 NE 9 15 30.21 1023 10 16 N/A
10:35 am 10:35 Sunny 45 7.3 27 -2.8 49 49 ENE 7 11 30.21 1023 10 16 N/A
10:55 am 10:55 Partly Cloudy 46 7.8 26 -3.1 46 46 ENE 8 13 30.21 1023 7 11 0.03 0.76
11:15 am 11:15 Partly Cloudy 47 8.6 28 -2.5 46 46 NE 8 13 30.18 1022 10 16 N/A
11:35 am 11:35 Partly Cloudy 48 9 27 -2.9 43 43 ENE 6 9 30.21 1023 10 16 N/A
11:55 am 11:55 Partly Cloudy 48 9.1 26 -3.1 42 42 NE 7 11 30.21 1023 10 16 N/A
12:15 pm 12:15 Partly Cloudy 49 9.7 26 -3.5 40 40 N 12 19 30.18 1022 10 16 N/A
12:35 pm 12:35 Partly Cloudy 50 10.1 25 -3.7 38 38 NNE 6 9 30.18 1022 10 16 N/A
12:55 pm 12:55 Sunny 52 11 26 -3.5 36 36 NNE 9 15 30.18 1022 10 16 N/A
1:15 pm 13:15 Sunny 53 11.6 26 -3.2 36 36 N 14 22 30.15 1021 10 16 N/A
1:35 pm 13:35 Sunny 53 11.9 27 -2.7 36 36 N 9 15 30.15 1021 10 16 N/A
1:55 pm 13:55 Sunny 54 12.2 26 -3.1 35 35 N 9 15 30.15 1021 10 16 N/A
2:15 pm 14:15 Sunny 55 12.7 27 -2.9 34 34 ENE 3 6 30.15 1021 10 16 N/A
2:35 pm 14:35 Sunny 56 13.2 28 -2.5 34 34 NW 8 13 30.15 1021 10 16 N/A
2:55 pm 14:55 Sunny 56 13.5 28 -2.2 34 34 NW 3 6 30.12 1020 10 16 N/A
3:15 pm 15:15 Sunny 57 13.8 28 -2 34 34 N 6 9 30.12 1020 10 16 N/A
3:35 pm 15:35 Sunny 57 14 28 -2.5 32 32 N N/A 30.12 1020 10 16 N/A
3:55 pm 15:55 Mostly Cloudy 57 14.1 27 -2.6 32 32 N N/A 30.12 1020 10 16 N/A
4:15 pm 16:15 Cloudy 58 14.4 28 -2.4 32 32 N N/A 30.09 1019 10 16 N/A
4:35 pm 16:35 Mostly Cloudy 58 14.6 28 -2.1 32 32 N N/A 30.06 1018 10 16 N/A
4:55 pm 16:55 Mostly Cloudy 58 14.3 28 -2.1 32 32 N N/A 30.06 1018 10 16 N/A
5:15 pm 17:15 Cloudy 58 14.3 27 -2.6 31 31 N N/A 30.06 1018 10 16 N/A
5:35 pm 17:35 Cloudy 59 15 29 -1.6 32 32 W 3 6 30.06 1018 10 16 N/A
5:55 pm 17:55 Cloudy 59 15.1 29 -1.7 32 32 SSW 3 6 30.06 1018 10 16 N/A
6:15 pm 18:15 Cloudy 58 14.7 28 -2.1 32 32 N N/A 30.06 1018 10 16 N/A
6:35 pm 18:35 Cloudy 58 14.2 30 -1.2 35 35 E 7 11 30.06 1018 10 16 N/A
6:55 pm 18:55 Cloudy 56 13.6 30 -1 37 37 ENE 7 11 30.09 1019 10 16 N/A
7:15 pm 19:15 Cloudy 55 12.9 28 -2.2 35 35 E 9 15 30.12 1020 10 16 N/A
7:35 pm 19:35 Cloudy 55 12.6 29 -1.7 37 37 E 8 13 30.12 1020 10 16 N/A
7:55 pm 19:55 Cloudy 54 12.2 29 -1.9 38 38 ESE 8 13 30.12 1020 10 16 N/A
8:15 pm 20:15 Mostly Cloudy 53 11.9 27 -3 36 36 ESE 10 17 30.12 1020 10 16 N/A
8:35 pm 20:35 Partly Cloudy 52 10.9 26 -3.5 37 37 ESE 9 15 30.15 1021 10 16 N/A
8:55 pm 20:55 Mostly Cloudy 51 10.8 26 -3.5 37 37 ESE 9 15 30.15 1021 10 16 N/A
9:15 pm 21:15 Cloudy 51 10.5 26 -3.6 37 37 ESE 10 17 30.15 1021 10 16 N/A
9:35 pm 21:35 Cloudy 51 10.4 26 -3.6 38 38 SE 9 15 30.18 1022 10 16 N/A
9:55 pm 21:55 Cloudy 50 10 25 -3.7 38 38 SE 9 15 30.18 1022 10 16 N/A
10:15 pm 22:15 Cloudy 48 9.1 25 -3.8 40 40 ESE 10 17 30.18 1022 10 16 N/A
10:35 pm 22:35 Cloudy 48 9 24 -4.2 39 39 SE 13 20 30.18 1022 10 16 N/A
10:55 pm 22:55 Cloudy 47 8.5 25 -4 41 41 SE 9 15 30.18 1022 10 16 N/A
11:15 pm 23:15 Cloudy 47 8.5 24 -4.5 40 40 SE 13 20 30.24 1024 10 16 N/A
11:35 pm 23:35 Cloudy 46 8 24 -4.6 41 41 SE 10 17 30.24 1024 10 16 N/A
11:55 pm 23:55 Cloudy 47 8.2 23 -5 39 39 SE 12 19 30.24 1024 10 16 N/A

Powered by AerisWeather